Hendro Asnawi

Scout - Persib
3 Apr 2027
Samstag
Verarbeitung

Persönlichkeit

Anpassungsfähigkeit (15) Ehrgeiz (10) Kontroverse (9) Loyalität (2) Druck (14) Professionalität (14) Fairness (14) Temperament (1)

Profil

Trainerstil Demokratisch
Lizenz Kontinentale A
Entschlossenheit 11
Menschenführung 8
Motivation 6
Disziplin 4
Arbeitszufriedenheit
100%
Ermüdung
0%
Rolle Scout
Gehalt 29.2K p/W
Vertrag 14.03.2030

Leistung

Verhalten Gut
Trainingseffektivität
35%
Spielerentwicklung
35%
Verletzungsprävention
45%
Taktische Umsetzung
35%

Letzte Ereignisse

Spieler begutachtet jetzt
Nahm an einer Scouting-Besprechung teil jetzt
Empfahl ein Transferziel jetzt
Empfahl ein Transferziel 7T her
Empfahl ein Transferziel 7T her
Spieler begutachtet 7T her
Spieler begutachtet 7T her
Spieler begutachtet 7T her

Aktuell beobachtet

77
Spieler Verein Status Fähigkeit Vertrauen Beobachtet Zuletzt beobachtet Letzte Stimme
Gavin Kilkenny Swindon Town Aktiv 111 / 93 40% 1 02.04.2027 -
Soltmurad Bakaev Rodina Aktiv 108 / 109 40% 2 29.03.2027 -
Fedde de Jong De Graafschap Aktiv 120 / 106 40% 1 29.03.2027 -
Charlie Webster Burton Albion Aktiv 109 / 130 40% 3 28.03.2027 -
Konstantin Kertanov Chelyabinsk Aktiv 108 / 82 40% 1 28.03.2027 -
Mark Helm Fleetwood Town Aktiv 116 / 109 40% 2 26.03.2027 -
Aaron Drinan Swindon Town Aktiv 97 / 115 40% 1 26.03.2027 -
Ryan Stirk Chesterfield Aktiv 98 / 90 40% 2 23.03.2027 -
Luca Connell Barnsley Aktiv 106 / 106 40% 4 21.03.2027 -
Rio Adébísí Peterborough United Aktiv 97 / 102 40% 4 21.03.2027 -
Liam Coyle Accrington Stanley Aktiv 87 / 78 40% 1 17.03.2027 -
Ekain Orobengoa Real Sociedad Aktiv 95 / 93 40% 1 15.03.2027 -
Connor Barrett Walsall Aktiv 105 / 104 40% 4 13.03.2027 -
Daniil Gurchenko Spartak Tambov Aktiv 78 / 95 40% 1 13.03.2027 -
Pavel Kireenko Dinamo St Petersburg Aktiv 106 / 88 40% 3 11.03.2027 -
Liam Bennett Cambridge United Aktiv 102 / 104 40% 1 11.03.2027 -
Marcus Browne AFC Wimbledon Aktiv 114 / 96 40% 4 10.03.2027 -
Andrey Mazurin Yenisey Aktiv 116 / 82 40% 1 07.03.2027 -
Armando Lopes Felgueiras Aktiv 113 / 96 40% 1 07.03.2027 -
Shaun Rooney Fleetwood Town Aktiv 100 / 95 40% 1 05.03.2027 -
Charlie Whitaker Tranmere Rovers Aktiv 106 / 92 40% 1 04.03.2027 -
Braian Álvarez Arsenal Tula Aktiv 105 / 89 40% 1 04.03.2027 -
Adil Taoui Lokomotiv Sofia Aktiv 120 / 119 40% 1 22.02.2027 -
Kyreece Lisbie Colchester United Aktiv 118 / 119 40% 5 20.02.2027 -
Nohan Kenneh Tranmere Rovers Aktiv 96 / 81 40% 1 17.02.2027 -
Ansor Khabibov Ryazan Aktiv 101 / 75 40% 1 16.02.2027 -
Ibrahim Cissoko Zwolle Aktiv 116 / 119 40% 2 15.02.2027 -
Louis Appéré Cambridge United Aktiv 104 / 97 40% 1 14.02.2027 -
Ramazan Gadjimuradov Chelyabinsk Aktiv 103 / 101 40% 2 13.02.2027 -
Rifat Zhemaletdinov Ural Aktiv 128 / 131 40% 2 08.02.2027 -
Migran Ageyan Ufa Aktiv 90 / 95 40% 1 08.02.2027 -
Tom Naylor Chesterfield Aktiv 106 / 94 40% 2 07.02.2027 -
David Karaev KAMAZ Aktiv 91 / 91 40% 1 07.02.2027 -
Alexandr Lomakin Yenisey Aktiv 98 / 112 40% 1 06.02.2027 -
Clinton Mola Bristol Rovers Aktiv 100 / 109 40% 1 06.02.2027 -
Danil Lipovoy Ufa Aktiv 97 / 118 40% 2 05.02.2027 -
Fabián Zambrano Sokol Aktiv 95 / 78 40% 1 05.02.2027 -
Andreas Weimann Cheltenham Town Aktiv 116 / 126 40% 4 04.02.2027 -
Jack Lankester Crewe Alexandra Aktiv 94 / 86 40% 2 04.02.2027 -
Matt Phillips Stevenage Aktiv 117 / 110 40% 2 02.02.2027 -
Albek Gongapshev Shinnik Aktiv 90 / 98 40% 1 02.02.2027 -
Hakeeb Adelakun Doncaster Rovers Aktiv 108 / 98 40% 2 01.02.2027 -
Macauley Southam-Hales Bristol Rovers Aktiv 93 / 86 40% 1 01.02.2027 -
Edarlyn Reyes Arsenal Tula Aktiv 116 / 109 40% 1 27.01.2027 -
Matías Lacava Vizela Aktiv 107 / 95 40% 1 27.01.2027 -
Fahd Moufi Baltika Aktiv 106 / 99 40% 2 25.01.2027 -
Rui Rampa Semen Padang Aktiv 97 / 76 58% 1 11.01.2027 Befürworten
Javlon Guseynov Persita Abgelehnt 102 / 113 58% 1 07.01.2027 Ablehnen
Tyronne Persita Aktiv 100 / 79 58% 1 05.01.2027 Befürworten
Iker Pozo Rodina Aktiv 110 / 112 40% 1 02.01.2027 -
Jack Currie Oxford United Aktiv 113 / 129 40% 1 02.01.2027 -
Nílson Júnior Maluku Utara United Abgelehnt 111 / 104 58% 1 01.01.2027 Ablehnen
François Kamano Sochi Aktiv 112 / 122 40% 2 31.12.2026 -
Corey O'Keeffe Barnsley Aktiv 114 / 93 40% 1 31.12.2026 -
Đorđe Pantelić Spartak Kostroma Abgelehnt 113 / 111 40% 1 25.12.2026 Mehr Infos nötig
Kamil Conteh Bristol Rovers Aktiv 96 / 92 40% 1 22.12.2026 -
Artem Simonyan Rotor Aktiv 100 / 92 40% 1 20.12.2026 -
Mésaque Djú Portimonense Aktiv 93 / 112 40% 1 20.12.2026 -
Jay-Roy Grot OB Aktiv 101 / 106 40% 1 19.12.2026 -
Sebastián Arce Rodina Aktiv 124 / 124 40% 1 16.12.2026 -
Jordan Roberts Stevenage Aktiv 110 / 101 40% 1 15.12.2026 -
Alex Pattison Walsall Aktiv 97 / 117 40% 1 15.12.2026 -
Dmitry Tsypchenko Torpedo Moscow Aktiv 114 / 93 40% 1 12.12.2026 -
Mohammad Javad Hosseinnejad Dinamo Makhachkala Abgelehnt 127 / 122 40% 1 09.12.2026 Mehr Infos nötig
Dean Campbell Northampton Town Aktiv 109 / 98 40% 2 04.12.2026 -
Agustín Ramírez Inter Aktiv 90 / 106 40% 3 02.12.2026 -
Matt Smith Newport County Aktiv 98 / 84 40% 1 30.11.2026 -
Otar Kiteishvili Sturm Graz Aktiv 123 / 134 40% 1 30.11.2026 -
Alejandro Melo Temperley Aktiv 127 / 114 40% 1 27.11.2026 -
Matías Ocampo Persebaya Aktiv 112 / 89 40% 1 20.11.2026 -
Stephen Humphrys Bradford City Aktiv 101 / 122 40% 1 19.11.2026 -
Diego Campos Bali United Aktiv 98 / 111 40% 1 18.11.2026 -
Michal Faško MSK Zilina Aktiv 142 / 107 40% 1 14.11.2026 -
Nermin Haljeta PSIM Aktiv 104 / 103 40% 1 05.11.2026 -
Manfred Fischer Austria Wien Aktiv 117 / 113 40% 1 05.11.2026 -
Guillermo Semen Padang Aktiv 73 / 99 55% 1 24.08.2026 -
Ander Cantero Burgos Aktiv 119 / 137 40% 1 01.08.2026 -